Meteo pe oră la Almozara

Astăzi, 24 Ianuarie, Duminică

Timp Temperatura Precipitaţii Vânt Presiune Umiditate
00:00 +5°C° 0.1 mm 4 m/s 728 mmHg 95%
01:00 +5°C° 0.1 mm 3 m/s 729 mmHg 95%
02:00 +5°C° 0.1 mm 3 m/s 729 mmHg 96%
03:00 +4°C° 0.1 mm 3 m/s 730 mmHg 96%
04:00 +4°C° 0.1 mm 3 m/s 730 mmHg 96%
05:00 +5°C° 0.1 mm 2 m/s 730 mmHg 96%
06:00 +5°C° 0 mm 2 m/s 731 mmHg 96%
07:00 +5°C° 0 mm 2 m/s 731 mmHg 96%
08:00 +5°C° 0 mm 2 m/s 731 mmHg 95%
09:00 +7°C° 0.1 mm 2 m/s 732 mmHg 93%
10:00 +8°C° 0.1 mm 2 m/s 732 mmHg 90%
11:00 +9°C° 0.1 mm 3 m/s 732 mmHg 88%
12:00 +9°C° 0.3 mm 2 m/s 732 mmHg 88%
13:00 +9°C° 0.3 mm 2 m/s 732 mmHg 89%
14:00 +9°C° 0.3 mm 2 m/s 732 mmHg 90%
15:00 +8°C° 0.1 mm 2 m/s 732 mmHg 92%
16:00 +9°C° 0.1 mm 1 m/s 732 mmHg 94%
17:00 +8°C° 0.1 mm 1 m/s 732 mmHg 96%
18:00 +8°C° 0 mm 1 m/s 732 mmHg 96%
19:00 +6°C° 0 mm 0 m/s 732 mmHg 96%
20:00 +6°C° 0 mm 0 m/s 733 mmHg 96%
21:00 +6°C° 0 mm 0 m/s 733 mmHg 96%
22:00 +5°C° 0 mm 0 m/s 733 mmHg 97%
23:00 +6°C° 0 mm 1 m/s 733 mmHg 97%

Mâine, 25 Ianuarie, Luni

Timp Temperatura Precipitaţii Vânt Presiune Umiditate
00:00 +5°C° 0 mm 1 m/s 733 mmHg 97%
01:00 +5°C° 0 mm 1 m/s 733 mmHg 97%
02:00 +5°C° 0 mm 1 m/s 733 mmHg 98%
03:00 +5°C° 0 mm 1 m/s 733 mmHg 98%
04:00 +5°C° 0 mm 1 m/s 732 mmHg 98%
05:00 +4°C° 0 mm 2 m/s 732 mmHg 98%
06:00 +5°C° 0 mm 2 m/s 733 mmHg 98%
07:00 +5°C° 0 mm 2 m/s 733 mmHg 97%
08:00 +6°C° 0 mm 2 m/s 733 mmHg 97%
09:00 +7°C° 0 mm 2 m/s 733 mmHg 95%
10:00 +8°C° 0 mm 2 m/s 734 mmHg 93%
11:00 +9°C° 0 mm 2 m/s 734 mmHg 91%
12:00 +9°C° 0 mm 2 m/s 734 mmHg 91%
13:00 +9°C° 0 mm 2 m/s 733 mmHg 90%
14:00 +9°C° 0 mm 2 m/s 733 mmHg 89%
15:00 +9°C° 0.1 mm 2 m/s 733 mmHg 91%
16:00 +8°C° 0.1 mm 2 m/s 733 mmHg 93%
17:00 +8°C° 0.1 mm 2 m/s 733 mmHg 94%
18:00 +8°C° 0 mm 2 m/s 733 mmHg 95%
19:00 +8°C° 0 mm 2 m/s 734 mmHg 95%
20:00 +8°C° 0 mm 3 m/s 734 mmHg 95%
21:00 +9°C° 0.1 mm 3 m/s 734 mmHg 96%
22:00 +9°C° 0.1 mm 3 m/s 734 mmHg 96%
23:00 +9°C° 0.1 mm 3 m/s 734 mmHg 96%

Poimâine, 26 Ianuarie, Marţi

Timp Temperatura Precipitaţii Vânt Presiune Umiditate
00:00 +10°C° 0.2 mm 4 m/s 734 mmHg 97%
01:00 +10°C° 0.2 mm 4 m/s 734 mmHg 97%
02:00 +11°C° 0.2 mm 4 m/s 734 mmHg 97%
03:00 +10°C° 0.7 mm 5 m/s 734 mmHg 97%
04:00 +10°C° 0.7 mm 5 m/s 734 mmHg 97%
05:00 +10°C° 0.7 mm 5 m/s 734 mmHg 97%
06:00 +12°C° 1.8 mm 4 m/s 734 mmHg 98%
07:00 +12°C° 1.8 mm 3 m/s 735 mmHg 98%
08:00 +12°C° 1.8 mm 3 m/s 735 mmHg 99%
09:00 +13°C° 0.6 mm 2 m/s 736 mmHg 99%
10:00 +13°C° 0.6 mm 2 m/s 736 mmHg 99%
11:00 +13°C° 0.6 mm 2 m/s 737 mmHg 99%
12:00 +13°C° 0 mm 2 m/s 737 mmHg 98%
13:00 +14°C° 0 mm 2 m/s 737 mmHg 98%
14:00 +14°C° 0 mm 1 m/s 737 mmHg 97%
15:00 +14°C° 0 mm 1 m/s 737 mmHg 98%
16:00 +13°C° 0 mm 1 m/s 738 mmHg 98%
17:00 +13°C° 0 mm 1 m/s 738 mmHg 99%
18:00 +12°C° 0 mm 1 m/s 738 mmHg 99%
19:00 +12°C° 0 mm 1 m/s 739 mmHg 99%
20:00 +12°C° 0 mm 1 m/s 739 mmHg 99%
21:00 +12°C° 0 mm 1 m/s 739 mmHg 99%
22:00 +12°C° 0 mm 2 m/s 739 mmHg 99%
23:00 +12°C° 0 mm 2 m/s 739 mmHg 99%

27 Ianuarie, Miercuri

Timp Temperatura Precipitaţii Vânt Presiune Umiditate
00:00 +12°C° 0 mm 2 m/s 739 mmHg 98%
01:00 +12°C° 0 mm 2 m/s 739 mmHg 98%
02:00 +13°C° 0 mm 2 m/s 739 mmHg 98%
03:00 +12°C° 0 mm 3 m/s 738 mmHg 98%
04:00 +12°C° 0 mm 3 m/s 738 mmHg 98%
05:00 +12°C° 0 mm 3 m/s 738 mmHg 98%
06:00 +12°C° 0 mm 3 m/s 738 mmHg 98%
07:00 +12°C° 0 mm 3 m/s 738 mmHg 97%
08:00 +13°C° 0 mm 3 m/s 738 mmHg 97%
09:00 +13°C° 0 mm 4 m/s 738 mmHg 96%
10:00 +13°C° 0 mm 4 m/s 738 mmHg 95%
11:00 +14°C° 0 mm 5 m/s 738 mmHg 94%
12:00 +14°C° 0 mm 5 m/s 738 mmHg 92%
13:00 +14°C° 0 mm 5 m/s 737 mmHg 91%
14:00 +14°C° 0 mm 6 m/s 737 mmHg 90%
15:00 +14°C° 0.1 mm 5 m/s 737 mmHg 91%
16:00 +13°C° 0.1 mm 5 m/s 737 mmHg 93%
17:00 +13°C° 0.1 mm 5 m/s 737 mmHg 95%
18:00 +13°C° 0.1 mm 5 m/s 737 mmHg 95%
19:00 +13°C° 0.1 mm 5 m/s 738 mmHg 94%
20:00 +13°C° 0.1 mm 5 m/s 738 mmHg 94%
21:00 +13°C° 0.3 mm 5 m/s 738 mmHg 95%
22:00 +13°C° 0.3 mm 4 m/s 738 mmHg 96%
23:00 +13°C° 0.3 mm 4 m/s 738 mmHg 97%

28 Ianuarie, Joi

Timp Temperatura Precipitaţii Vânt Presiune Umiditate
00:00 +13°C° 0.2 mm 4 m/s 738 mmHg 97%
01:00 +13°C° 0.2 mm 4 m/s 738 mmHg 97%
02:00 +13°C° 0.2 mm 4 m/s 738 mmHg 97%
03:00 +13°C° 0.2 mm 4 m/s 738 mmHg 97%
04:00 +13°C° 0.2 mm 4 m/s 738 mmHg 97%
05:00 +13°C° 0.2 mm 4 m/s 738 mmHg 97%
06:00 +13°C° 0.2 mm 4 m/s 738 mmHg 97%
07:00 +13°C° 0.2 mm 5 m/s 738 mmHg 96%
08:00 +13°C° 0.2 mm 5 m/s 738 mmHg 96%
09:00 +13°C° 0.1 mm 5 m/s 738 mmHg 95%
10:00 +13°C° 0.1 mm 5 m/s 739 mmHg 94%
11:00 +13°C° 0.1 mm 5 m/s 739 mmHg 93%
12:00 +13°C° 0.1 mm 5 m/s 738 mmHg 93%
13:00 +13°C° 0.1 mm 5 m/s 738 mmHg 93%
14:00 +13°C° 0.1 mm 5 m/s 738 mmHg 93%
15:00 +13°C° 0.1 mm 5 m/s 738 mmHg 93%
16:00 +13°C° 0.1 mm 5 m/s 738 mmHg 94%
17:00 +13°C° 0.1 mm 5 m/s 738 mmHg 94%

29 Ianuarie, Vineri

Timp Temperatura Precipitaţii Vânt Presiune Umiditate
Arată mai mult

Formular de consimțământ

Meteoprog și furnizorii noștri de servicii pot stoca și accesa date personale, precum cookies, identificatori de dispozitiv sau alte tehnologii similare pe dispozitivul dumneavoastră și procesa astfel de date pentru a personaliza conținutul și reclamele, dar și pentru a oferi caracteristici de social media și pentru a analiza traficul.

  • Stocarea și/sau accesarea informațiilor pe dispozitivul dumneavoastră

    Cookies, identificatori de dispozitiv sau alte informații pot fi stocate sau accesate pe dispozitiv în scopurile indicate mai sus.

  • Reclame și conținut personalizat, evaluarea reclamelor și a conținutului, informații despre audiențe și dezvoltarea produselor

    Reclamele și conținutul pot fi personalizate pe baza unui profil. Pot fi adăugate date suplimentare pentru a personaliza mai bine reclamele și conținutul. Performanța reclamelor și conținutului poate fi măsurată. Pot fi obținute informații despre utilizatorii care au văzut reclamele și conținutul. Aceste date pot fi utilizate pentru a dezvolta sau îmbunătăți experiența utilizatorilor, sistemele și software-ul.

Dând clic pe ‘Sunt de acord’, permiteți utilizarea cookie-urilor menționate, a identificatorilor de dispozitiv, balizelor web sau altor tehnologii similare. Setările pot fi modificate din browser-ul dispozitivului dumneavoastră.

În anumite scopuri, interesele legitime pot prima asupra consimțământului. Puteți citi mai multe informații în acest sens în Politica privind Confidențialitatea Datelor și Cookie.